[[{"header":{"parameterUnit":"m.s-1","parameterCategory":1,"la1":30.2991,"la2":30.254,"lo1":-89.0895,"lo2":-89.0444,"dy":0.0017,"dx":0.0017,"nx":28,"ny":28,"refTime":"2024-02-18T03:00:00:Z","depth":0,"parameterNumber":2,"parameterNumberName":"U-component_of_WINDS"},"data":[0,0,0,0,0,0,0,0,0,0,0,0,0,0,0,0,0,0,0,0,0,0,0,0,0,0,0,0,0,0,0,0,0,0,0,0,0,0,0,0,0,0,0,0,0,0,0,0,0,0,0,0,0,0,0,0,0,0,1.1297,1.1297,0,1.1269,1.1269,1.1268,1.1268,1.1269,1.1269,1.1269,1.1237,1.1236,1.1235,0,0,0,0,0,0,0,0,0,0,0,0,0,1.1349,1.1348,1.1297,1.1297,1.1297,1.1269,1.1269,1.1268,1.1268,1.1269,1.1269,1.127,1.1237,1.1236,1.1235,0,0,0,0,0,0,0,0,0,0,0,0,0,1.1324,1.1348,1.1297,1.1293,1.1293,1.1269,1.1269,1.1268,1.1268,1.1269,1.1269,1.127,1.1238,1.1236,1.1234,1.1212,0,0,1.1229,1.1228,0,0,0,0,0,0,0,0,1.1325,1.1322,1.1294,1.1294,1.1293,1.1273,1.1275,1.1249,1.1268,1.1277,1.1269,1.127,1.1248,1.1246,1.1239,1.121,1.1209,1.1229,1.1227,1.1227,1.1226,0,0,0,0,0,0,0,1.1327,1.1323,1.1286,1.1294,1.1293,1.1292,1.1289,1.127,1.126,1.1277,1.1277,1.1273,1.1248,1.1241,1.1238,1.1208,1.1229,1.1227,1.1226,1.1225,1.1159,1.1158,0,0,0,0,0,0,1.133,1.1325,1.1287,1.1285,1.1311,1.1291,1.1287,1.1279,1.126,1.1258,1.1273,1.1273,1.1244,1.124,1.1237,1.1208,1.1227,1.1225,1.1224,1.116,1.1159,1.1158,0,0,0,0,0,0,1.1331,1.1327,1.1288,1.1305,1.13,1.1289,1.1279,1.1278,1.127,1.1257,1.1255,1.1267,1.1244,1.124,1.1218,1.1207,1.1224,1.1223,1.116,1.1159,1.1159,1.1152,0,0,0,0,0,0,1.1333,1.1327,1.1319,1.1305,1.1299,1.127,1.1279,1.1277,1.1268,1.1268,1.1252,1.1249,1.1244,1.1221,1.1216,1.1205,1.1221,1.1161,1.116,1.1159,1.1153,1.1151,1.1149,0,0,0,0,0,1.1335,1.1318,1.1319,1.1314,1.1289,1.127,1.1266,1.1261,1.1267,1.1258,1.125,1.125,1.121,1.1219,1.1214,1.1202,1.1162,1.116,1.1159,1.1154,1.1151,1.1149,0,0,0,0,0,0,1.1329,1.1316,1.1316,1.1295,1.1284,1.127,1.1258,1.1259,1.1245,1.1245,1.1239,1.1235,1.1214,1.1206,1.1216,1.1179,1.1186,1.1184,1.1184,1.1182,1.118,1.1181,1.122,0,0,0,0,0,1.1326,1.1313,1.1301,1.1283,1.1277,1.1269,1.126,1.1258,1.1245,1.124,1.123,1.1217,1.1202,1.1192,1.1177,1.1153,1.1148,1.1142,1.114,1.1138,1.1135,1.1121,1.1118,1.1153,1.1153,1.1153,0,0,1.1318,1.1309,1.1301,1.1282,1.1273,1.1258,1.1265,1.1249,1.1237,1.1237,1.1216,1.1209,1.1194,1.1171,1.116,1.1164,1.1125,1.1136,1.1135,1.1133,1.1119,1.1116,1.1113,1.1152,1.1152,1.1153,0,0,1.1296,1.1289,1.1272,1.1264,1.125,1.1245,1.1241,1.1228,1.1223,1.1202,1.1202,1.1188,1.1162,1.1151,1.1142,1.1117,1.1116,1.1113,1.1101,1.1087,1.1084,1.1082,1.1071,1.1068,1.111,1.111,1.111,0,1.1288,1.1266,1.1264,1.1248,1.1239,1.124,1.1222,1.1214,1.1196,1.1189,1.1194,1.1161,1.1151,1.1125,1.1119,1.1113,1.1107,1.1113,1.1085,1.1083,1.108,1.107,1.1066,1.111,1.111,1.111,1.111,0,1.1256,1.1241,1.1229,1.1213,1.1203,1.1187,1.1181,1.1171,1.1169,1.1163,1.1142,1.1131,1.1113,1.1107,1.1105,1.1081,1.1083,1.1087,1.1094,1.1076,1.1067,1.1063,1.1109,1.1109,1.1109,1.1109,0,0,1.1228,1.1211,1.1207,1.1199,1.1186,1.1173,1.1157,1.1141,1.1132,1.112,1.1105,1.1084,1.1087,1.1077,1.1074,1.1062,1.1042,1.1067,1.1066,1.1061,1.1012,1.1008,1.1004,1.1042,1.1041,1.1041,1.1013,0,1.1203,1.1174,1.1172,1.1146,1.1131,1.1133,1.1118,1.1108,1.1102,1.1088,1.1082,1.1066,1.1072,1.1066,1.1055,1.1046,1.1031,1.1049,1.1026,1.1026,1.1028,1.0999,1.0995,1.0969,1.101,1.1009,1.1008,0,1.117,1.1158,1.113,1.1118,1.1112,1.1099,1.1084,1.1072,1.106,1.1057,1.1046,1.1045,1.1027,1.1037,1.1011,1.1023,1.1014,1.1009,1.1008,1.1004,1.1014,1.0993,1.0961,1.0956,1.1003,1.1003,1.1004,0,1.115,1.1127,1.1108,1.1101,1.1087,1.1078,1.1072,1.1061,1.1051,1.1038,1.1032,1.1017,1.1008,1.0996,1.099,1.0998,1.0964,1.0974,1.0959,1.0959,1.095,1.095,1.0915,1.0948,1.0948,1.0948,1.0948,0,1.1121,1.1104,1.1098,1.1086,1.1067,1.1064,1.1045,1.1039,1.1029,1.1015,1.1016,1.1002,1.0997,1.0982,1.0978,1.0957,1.0953,1.0949,1.0947,1.0947,1.0948,1.094,1.094,1.0947,1.0947,1.0948,1.0948,0,1.1094,1.109,1.1069,1.1058,1.1055,1.1041,1.1031,1.1019,1.1015,1.0997,1.0992,1.0984,1.0967,1.0962,1.0941,1.0938,1.0912,1.0914,1.0917,1.0916,1.0901,1.0902,1.0857,1.085,1.089,1.089,1.0889,0,1.1075,1.1062,1.105,1.1041,1.1035,1.1021,1.1011,1.1009,1.0999,1.0985,1.0974,1.0957,1.0944,1.0916,1.0908,1.0892,1.0891,1.0877,1.0889,1.0889,1.0889,1.0889,1.0887,1.0874,1.0874,1.0873,1.0873,0,1.1041,1.104,1.1027,1.1013,1.1002,1.0991,1.0981,1.0973,1.0969,1.0958,1.0941,1.093,1.091,1.0893,1.0877,1.0869,1.0869,1.087,1.0865,1.0864,1.0865,1.0862,1.0908,1.087,1.087,1.0871,1.0871,1.0871,1.1016,1.1004,1.0994,1.0979,1.0971,1.0961,1.0949,1.0944,1.093,1.0914,1.0913,1.0895,1.0883,1.0862,1.0853,1.0838,1.0842,1.0836,1.0834,1.0832,1.083,1.087,1.0836,1.0836,1.0836,1.0836,1.0836,0,1.0979,1.0974,1.0961,1.0946,1.0934,1.0938,1.0927,1.0916,1.0901,1.089,1.0877,1.0858,1.0842,1.0833,1.0817,1.0806,1.0806,1.0802,1.0801,1.0799,1.0828,1.0833,1.0802,1.0802,1.0802,1.0802,1.0802,1.0802,1.0959,1.0939,1.0937,1.0913,1.0907,1.0889,1.0882,1.0873,1.0865,1.0843,1.083,1.0825,1.0815,1.0799,1.0784,1.0781,1.0774,1.0769,1.0767,1.0794,1.0797,1.08,1.0805,1.0768,1.0768,1.0739,1.0739,1.0739]},{"header":{"parameterUnit":"m.s-1","parameterCategory":1,"la1":30.2991,"la2":30.254,"lo1":-89.0895,"lo2":-89.0444,"dy":0.0017,"dx":0.0017,"nx":28,"ny":28,"refTime":"2024-02-18T03:00:00:Z","depth":0,"parameterNumber":3,"parameterNumberName":"V-component_of_WINDS"},"data":[0,0,0,0,0,0,0,0,0,0,0,0,0,0,0,0,0,0,0,0,0,0,0,0,0,0,0,0,0,0,0,0,0,0,0,0,0,0,0,0,0,0,0,0,0,0,0,0,0,0,0,0,0,0,0,0,0,0,-4.6287,-4.6288,0,-4.6435,-4.6436,-4.6438,-4.6391,-4.6388,-4.6385,-4.6382,-4.6531,-4.6538,-4.6545,0,0,0,0,0,0,0,0,0,0,0,0,0,-4.596,-4.5966,-4.6286,-4.6288,-4.629,-4.6434,-4.6436,-4.6438,-4.6392,-4.6388,-4.6384,-4.638,-4.6529,-4.6537,-4.6545,0,0,0,0,0,0,0,0,0,0,0,0,0,-4.6104,-4.5968,-4.6286,-4.6284,-4.6285,-4.6434,-4.6437,-4.6439,-4.6392,-4.6388,-4.6383,-4.6379,-4.6526,-4.6536,-4.6546,-4.6705,0,0,-4.6578,-4.6583,0,0,0,0,0,0,0,0,-4.6096,-4.6116,-4.6283,-4.6285,-4.6286,-4.639,-4.6376,-4.6528,-4.6394,-4.6352,-4.6382,-4.6376,-4.6488,-4.6501,-4.6539,-4.6712,-4.6718,-4.6579,-4.6585,-4.659,-4.6593,0,0,0,0,0,0,0,-4.6086,-4.6109,-4.6345,-4.6285,-4.6287,-4.6275,-4.629,-4.6405,-4.6444,-4.6355,-4.6352,-4.637,-4.6488,-4.6529,-4.6542,-4.672,-4.6579,-4.6588,-4.6594,-4.6598,-4.703,-4.7034,0,0,0,0,0,0,-4.6075,-4.6101,-4.634,-4.6349,-4.6178,-4.6285,-4.6302,-4.6361,-4.6443,-4.6451,-4.6374,-4.6368,-4.6514,-4.653,-4.6547,-4.6738,-4.659,-4.6599,-4.6605,-4.7024,-4.7031,-4.7036,0,0,0,0,0,0,-4.6068,-4.6097,-4.6334,-4.6225,-4.6254,-4.6295,-4.6362,-4.6367,-4.6408,-4.6457,-4.6464,-4.6409,-4.6511,-4.6533,-4.6666,-4.6742,-4.6604,-4.6613,-4.7018,-4.7026,-4.7033,-4.712,0,0,0,0,0,0,-4.6059,-4.6095,-4.6156,-4.6226,-4.626,-4.6452,-4.6367,-4.6373,-4.6426,-4.6419,-4.6492,-4.65,-4.6509,-4.6651,-4.6676,-4.6754,-4.6622,-4.7011,-4.7022,-4.7031,-4.7111,-4.713,-4.7147,0,0,0,0,0,-4.6048,-4.6175,-4.616,-4.6189,-4.6338,-4.6456,-4.6475,-4.6484,-4.6433,-4.6494,-4.6526,-4.6497,-4.673,-4.6665,-4.6693,-4.6775,-4.7007,-4.7019,-4.703,-4.7103,-4.7126,-4.7146,0,0,0,0,0,0,-4.6112,-4.6184,-4.6168,-4.6322,-4.6383,-4.6448,-4.6526,-4.6509,-4.6586,-4.6575,-4.6581,-4.6598,-4.6735,-4.6768,-4.6695,-4.6932,-4.686,-4.6878,-4.6906,-4.6929,-4.6946,-4.6935,-4.663,0,0,0,0,0,-4.6144,-4.6235,-4.6292,-4.6422,-4.6454,-4.6485,-4.6537,-4.6538,-4.6602,-4.6627,-4.6669,-4.6731,-4.6818,-4.6875,-4.6958,-4.7115,-4.713,-4.7185,-4.7203,-4.7217,-4.7233,-4.7318,-4.7343,-4.7075,-4.7075,-4.7075,0,0,-4.6211,-4.6261,-4.6319,-4.6436,-4.6484,-4.6578,-4.6507,-4.6609,-4.6678,-4.6643,-4.6771,-4.6804,-4.6873,-4.7019,-4.7086,-4.7051,-4.731,-4.7233,-4.7244,-4.7252,-4.7332,-4.7358,-4.738,-4.7083,-4.7082,-4.708,0,0,-4.6381,-4.6429,-4.6542,-4.6591,-4.6665,-4.6684,-4.6711,-4.6779,-4.68,-4.6929,-4.6904,-4.6985,-4.7135,-4.7186,-4.7231,-4.7419,-4.7395,-4.7445,-4.7539,-4.7622,-4.7643,-4.7661,-4.7728,-4.7752,-4.746,-4.7461,-4.7461,0,-4.6455,-4.6595,-4.6602,-4.6706,-4.6758,-4.6731,-4.6845,-4.6892,-4.6989,-4.7025,-4.6985,-4.7171,-4.7216,-4.7373,-4.7419,-4.7457,-4.7487,-4.7437,-4.7639,-4.7658,-4.7676,-4.7739,-4.7764,-4.7466,-4.7466,-4.7465,-4.7465,0,-4.6682,-4.678,-4.6862,-4.6957,-4.7018,-4.7127,-4.7148,-4.7209,-4.7205,-4.7228,-4.7359,-4.7412,-4.7505,-4.7542,-4.7538,-4.7698,-4.7675,-4.7637,-4.7565,-4.7707,-4.7766,-4.7791,-4.7474,-4.7472,-4.7471,-4.7469,0,0,-4.6898,-4.6994,-4.7024,-4.7066,-4.7145,-4.722,-4.7326,-4.7418,-4.7469,-4.7536,-4.7625,-4.7752,-4.7718,-4.7769,-4.7771,-4.7843,-4.7988,-4.7796,-4.7798,-4.783,-4.8166,-4.8194,-4.8222,-4.7972,-4.7977,-4.7981,-4.816,0,-4.7074,-4.7262,-4.7271,-4.7442,-4.7531,-4.7506,-4.7599,-4.7656,-4.7681,-4.7759,-4.7785,-4.7875,-4.7823,-4.7854,-4.7925,-4.7955,-4.8055,-4.7942,-4.8054,-4.8058,-4.8038,-4.8254,-4.8284,-4.8451,-4.8184,-4.8188,-4.8191,0,-4.7305,-4.738,-4.756,-4.7625,-4.7663,-4.7746,-4.783,-4.7906,-4.797,-4.7983,-4.804,-4.8031,-4.8138,-4.8062,-4.821,-4.8133,-4.8179,-4.8201,-4.8207,-4.8218,-4.8133,-4.827,-4.8504,-4.8529,-4.8228,-4.8225,-4.8222,0,-4.7444,-4.7589,-4.7716,-4.7753,-4.7832,-4.7891,-4.7926,-4.7986,-4.804,-4.8113,-4.8147,-4.8231,-4.8277,-4.8342,-4.8355,-4.8299,-4.8503,-4.8428,-4.8515,-4.8515,-4.856,-4.8557,-4.8805,-4.859,-4.8589,-4.8589,-4.8588,0,-4.764,-4.7751,-4.7779,-4.7857,-4.798,-4.7988,-4.811,-4.8141,-4.8194,-4.8276,-4.8259,-4.8336,-4.8349,-4.8429,-4.844,-4.856,-4.8581,-4.8593,-4.8595,-4.8595,-4.8594,-4.8625,-4.8614,-4.8595,-4.8594,-4.8593,-4.8592,0,-4.7816,-4.7839,-4.7975,-4.8039,-4.8057,-4.8146,-4.8199,-4.8273,-4.8295,-4.84,-4.8425,-4.8459,-4.8552,-4.8572,-4.8682,-4.8689,-4.8832,-4.8822,-4.8811,-4.881,-4.8896,-4.8887,-4.9173,-4.921,-4.8971,-4.8973,-4.8975,0,-4.794,-4.8024,-4.8097,-4.8152,-4.819,-4.8278,-4.8333,-4.8343,-4.8401,-4.848,-4.8544,-4.8636,-4.8709,-4.8859,-4.8893,-4.8977,-4.8969,-4.9063,-4.8982,-4.8979,-4.897,-4.8965,-4.8973,-4.9079,-4.9082,-4.9084,-4.9085,0,-4.8156,-4.8164,-4.8244,-4.8329,-4.8395,-4.8462,-4.8525,-4.857,-4.8589,-4.8655,-4.875,-4.8807,-4.892,-4.9011,-4.9095,-4.9129,-4.9111,-4.9111,-4.9135,-4.9136,-4.9126,-4.9133,-4.8853,-4.9104,-4.9102,-4.9101,-4.91,-4.9099,-4.831,-4.8384,-4.8447,-4.8536,-4.8585,-4.8645,-4.8717,-4.8748,-4.8828,-4.8922,-4.8922,-4.9027,-4.9087,-4.9198,-4.9238,-4.9319,-4.9289,-4.9325,-4.9334,-4.9342,-4.935,-4.9113,-4.9334,-4.9333,-4.9333,-4.9332,-4.9332,0,-4.8526,-4.8565,-4.8647,-4.8737,-4.8807,-4.8784,-4.8852,-4.8912,-4.9005,-4.9063,-4.9136,-4.9245,-4.9333,-4.9373,-4.946,-4.9516,-4.951,-4.9538,-4.9534,-4.9543,-4.9372,-4.9342,-4.9542,-4.9542,-4.9542,-4.9542,-4.9542,-4.9542,-4.8646,-4.877,-4.8785,-4.8932,-4.8969,-4.9072,-4.9113,-4.9168,-4.9214,-4.9337,-4.941,-4.9436,-4.9487,-4.9577,-4.9656,-4.9665,-4.9697,-4.9731,-4.9736,-4.9576,-4.9555,-4.9534,-4.9506,-4.9738,-4.9738,-4.99,-4.9901,-4.9902]}]]